Weather in Polna

Russia / Pskov Oblast     58°27′07″N   28°09′37″E
temp.,
°C
wind,
m/s
gust,
m/s
humid.,
%
clouds,
%
prec.,
mm/h
press.,
hPa
HPBL,
m
17 may, mon
mon1700:00+11ese26845 0.0 101099
03:00+11ese311885 0.0 1010230
06:00+12ese3118645 0.0 1010293
09:00+18se4966100 0.0 1010581
12:00+21se5955100 0.0 10091533
15:00+22se5854100 0.8 10081801
18:00+18sse3880100 1.1 1008597
21:00+14nw2394100 1.9 100784
18 may, tue
tue1800:00+13nne31098100 3.9 1005460
03:00+14ene3999100 5.8 1003408
06:00+15ene3698100 0.4 1001324
09:00+16se3996100 4.1 1001876
12:00+17sse3995100 0.4 1001664
15:00+17s4891100 1.2 1002728
18:00+17w3492100 0.7 1003381
21:00+13nw249699 0.8 1004222
19 may, wed
wed1900:00+11nnw2696100 0.0 1005215
03:00+11nnw3795100 0.0 1005339
06:00+11n3796100 0.7 1005338
09:00+11n2595100 1.3 1005349
12:00+13nnw2390100 0.1 1006505
15:00+13nnw2596100 1.1 1006310
18:00+13n359297 0.1 1006311
21:00+10nnw259569 0.1 1006134
20 may, thu
thu2000:00+10nnw2696100 0.0 1006172
03:00+9nnw2898100 0.0 1005226
06:00+10nnw2695100 0.0 1004230
09:00+11nnw2496100 0.4 1004261
12:00+12nnw2296100 0.4 1003285
15:00+12wnw2396100 0.5 1002302
18:00+10wnw4898100 0.3 1002428
21:00+10wnw41098100 0.3 1002697
21 may, fri
fri2100:00+9w51196100 0.1 1002593
03:00+9wsw51296100 0.3 1003610
06:00+8wsw51394100 0.9 1004645
09:00+11wsw6128388 1.2 1006671
12:00+15wsw71051100 0.0 10091340
15:00+17wsw5844100 0.0 10102386
18:00+15w475297 0.0 10101017
21:00+11sw257397 0.0 1011150